Weather in Rubezhnoye

Russia / Chechen Republic     43°43′48″N   45°10′12″E
temp.,
°C
wind,
m/s
gust,
m/s
humid.,
%
clouds,
%
prec.,
mm/h
press.,
hPa
HPBL,
m
8 march, mon
mon800:000ese484419 0.0 1022314
03:00−1ese375538 0.0 1022284
06:00−1se246093 0.0 1022231
09:00+2e235146 0.0 1020402
12:00+5ene454568 0.0 10181050
15:00+6ene445084 0.0 10171257
18:00+5e3360100 0.0 1017830
21:00+3se3580100 0.0 1019263
9 march, tue
tue900:00+2se2392100 0.0 1018132
03:00+1se239498 0.0 101895
06:00+1s119094 0.0 101722
09:00+4w116881 0.0 1017283
12:00+7n11420 0.0 10161395
15:00+9se013721 0.0 10151452
18:00+8sw00400 0.0 101724
21:00+7nw464649 0.0 1020409
10 march, wed
wed1000:00+4nw467398 0.0 1021636
03:00+3w357299 0.0 1021831
06:00+1wnw3590100 0.1 1023407
09:00+3w4659100 0.4 1024679
12:00+6nw453977 0.0 10221450
15:00+7nnw334184 0.0 10211547
18:00+5nne4344100 0.0 10211320
21:00+4ene5647100 0.0 1022943
11 march, thu
thu1100:00+2ene6854100 0.0 1020936
03:00−1ene6892100 0.7 1020504
06:00−2ene71195100 2.8 1020557
09:00−2ene81194100 5.3 1020646
12:00−2ene81194100 2.1 1020797
15:00−4ne71094100 4.6 1021749
18:00−5ne6995100 1.9 1024620
21:00−6ene4795100 3.4 1025535
12 march, fri
fri1200:00−6ne2396100 1.0 1026263
03:00−6nne2496100 1.5 1028211
06:00−8ne3694100 0.3 1030274
09:00−6ene3578100 0.4 1031519
12:00−4e347484 0.0 1029725
15:00−4ene457669 0.0 1028753
18:00−7e33812 0.0 103023
21:00−9ese34881 0.0 103163